sat.trackr.live / text

‹ back to catalog

STARLINK-32610

NORAD 61971 · 2024-210N

PAYLOAD ACTIVE UNKNOWN

§ Identity

Operator
Country
US
Launch date
2024-11-14
Launch site
AFETR
Launch vehicle
Mass (kg)
RCS (m²)

Purposes: comms

External: N2YO · Heavens-Above · Gunter

§ Orbital elements

Epoch: 2026-09-21T00:57:45.963648Z

Period
94.27 min
Inclination
43.0004°
Eccentricity
0.0001181
Mean motion
15.27584281 rev/d
Perigee alt
482.2 km
Apogee alt
483.8 km
Semi-major
6,861.2 km
B*
3.4463e-4
RAAN
156.8122°
Arg perigee
278.3690°
Mean anomaly
81.7028°
Rev number
10,479

§ Raw data

STARLINK-326101 61971U 24210N   26264.04011532  .00009234  00000+0  34463-3 0  99992 61971  43.0004 156.8122 0001181 278.3690  81.7028 15.27584281104798

JSON: /api/v1/satellites/61971 · /tle

For live sub-satellite position, see the globe view (requires WebGL).

§ Visibility from observer

Set your observer location to see the next 7 days of passes ≥ 10°. The values pass through the URL so the page stays shareable.

No JS? Fill the form by hand. The geolocation button needs JavaScript.